Time,TemperatureF,DewpointF,PressureIn,WindDirection,WindDirectionDegrees,WindSpeedMPH,WindSpeedGustMPH,Humidity,HourlyPrecipIn,Conditions,Clouds,dailyrainin,SoftwareType,DateUTC
2013-06-28 00:02:00,79.5,70.9,29.80,ESE,112,2.0,2.0,75,0.00,,CLR,0.00,VWS V14.01,2013-06-28 05:02:00,
2013-06-28 00:07:00,79.6,71.0,29.80,SSE,158,0.0,4.0,75,0.00,,CLR,0.00,VWS V14.01,2013-06-28 05:07:00,
2013-06-28 00:12:00,79.6,71.0,29.80,SSE,164,0.0,0.0,75,0.00,,CLR,0.00,VWS V14.01,2013-06-28 05:12:00,
2013-06-28 00:17:00,79.6,71.0,29.81,SSE,164,0.0,2.0,75,0.00,,CLR,0.00,VWS V14.01,2013-06-28 05:17:00,
2013-06-28 00:22:00,79.6,71.0,29.80,SSE,164,0.0,0.0,75,0.00,,CLR,0.00,VWS V14.01,2013-06-28 05:22:00,
2013-06-28 00:27:00,79.5,71.3,29.80,SSE,165,0.0,2.0,76,0.00,,CLR,0.00,VWS V14.01,2013-06-28 05:27:00,
2013-06-28 00:32:00,79.4,71.2,29.79,SSE,165,0.0,0.0,76,0.00,,CLR,0.00,VWS V14.01,2013-06-28 05:32:00,
2013-06-28 00:37:00,79.3,71.1,29.80,SSE,165,0.0,0.0,76,0.00,,CLR,0.00,VWS V14.01,2013-06-28 05:37:00,
2013-06-28 00:42:00,79.1,70.9,29.79,SSE,165,0.0,0.0,76,0.00,,CLR,0.00,VWS V14.01,2013-06-28 05:42:00,
2013-06-28 00:47:00,79.0,71.2,29.79,SSE,165,0.0,0.0,77,0.00,,CLR,0.00,VWS V14.01,2013-06-28 05:47:00,
2013-06-28 00:52:00,78.8,71.0,29.78,SSE,165,0.0,0.0,77,0.00,,CLR,0.00,VWS V14.01,2013-06-28 05:52:00,
2013-06-28 00:57:00,78.6,70.8,29.78,SSE,165,0.0,0.0,77,0.00,,CLR,0.00,VWS V14.01,2013-06-28 05:57:00,
2013-06-28 01:02:00,78.4,71.0,29.79,SSE,165,0.0,0.0,78,0.00,,CLR,0.00,VWS V14.01,2013-06-28 06:02:00,
2013-06-28 01:07:00,78.3,70.9,29.79,SSE,165,0.0,0.0,78,0.00,,CLR,0.00,VWS V14.01,2013-06-28 06:07:00,
2013-06-28 01:12:00,78.2,70.8,29.79,SSE,165,0.0,0.0,78,0.00,,CLR,0.00,VWS V14.01,2013-06-28 06:12:00,
2013-06-28 01:17:00,78.1,71.1,29.78,SSE,165,0.0,0.0,79,0.00,,CLR,0.00,VWS V14.01,2013-06-28 06:17:00,
2013-06-28 01:22:00,78.1,71.1,29.78,SSE,165,0.0,1.0,79,0.00,,CLR,0.00,VWS V14.01,2013-06-28 06:22:00,
2013-06-28 01:27:00,78.2,71.2,29.79,SSE,165,0.0,1.0,79,0.00,,CLR,0.00,VWS V14.01,2013-06-28 06:27:00,
2013-06-28 01:32:00,78.2,71.2,29.78,SSE,165,0.0,0.0,79,0.00,,CLR,0.00,VWS V14.01,2013-06-28 06:32:00,
2013-06-28 01:37:00,78.2,71.2,29.78,SSE,165,0.0,1.0,79,0.00,,CLR,0.00,VWS V14.01,2013-06-28 06:37:00,
2013-06-28 01:42:00,78.2,71.2,29.78,SSE,165,0.0,0.0,79,0.00,,CLR,0.00,VWS V14.01,2013-06-28 06:42:00,
2013-06-28 01:47:00,78.2,71.2,29.78,SSE,165,0.0,1.0,79,0.00,,CLR,0.00,VWS V14.01,2013-06-28 06:47:00,
2013-06-28 01:52:00,78.1,71.1,29.78,SSE,165,0.0,0.0,79,0.00,,CLR,0.00,VWS V14.01,2013-06-28 06:52:00,
2013-06-28 01:57:00,78.1,71.1,29.78,SSE,165,0.0,1.0,79,0.00,,CLR,0.00,VWS V14.01,2013-06-28 06:57:00,
2013-06-28 02:02:00,78.0,71.0,29.78,SSE,165,0.0,1.0,79,0.00,,CLR,0.00,VWS V14.01,2013-06-28 07:02:00,
2013-06-28 02:07:00,78.1,71.1,29.78,SSE,165,0.0,5.0,79,0.00,,CLR,0.00,VWS V14.01,2013-06-28 07:07:00,
2013-06-28 02:12:00,78.1,71.1,29.77,SSW,194,0.0,3.0,79,0.00,,CLR,0.00,VWS V14.01,2013-06-28 07:12:00,
2013-06-28 02:17:00,78.2,71.2,29.78,SSW,194,0.0,3.0,79,0.00,,CLR,0.00,VWS V14.01,2013-06-28 07:17:00,
2013-06-28 02:22:00,78.2,71.2,29.78,SSW,194,0.0,0.0,79,0.00,,CLR,0.00,VWS V14.01,2013-06-28 07:22:00,
2013-06-28 02:27:00,78.1,71.1,29.78,SSW,194,0.0,1.0,79,0.00,,CLR,0.00,VWS V14.01,2013-06-28 07:27:00,
2013-06-28 02:32:00,78.1,71.1,29.78,SSW,194,0.0,1.0,79,0.00,,CLR,0.00,VWS V14.01,2013-06-28 07:32:00,
2013-06-28 02:37:00,78.0,71.0,29.77,SSW,194,0.0,1.0,79,0.00,,CLR,0.00,VWS V14.01,2013-06-28 07:37:00,
2013-06-28 02:42:00,78.0,71.0,29.77,SSW,194,0.0,0.0,79,0.00,,CLR,0.00,VWS V14.01,2013-06-28 07:42:00,
2013-06-28 02:47:00,77.9,70.9,29.76,SSW,194,0.0,1.0,79,0.00,,CLR,0.00,VWS V14.01,2013-06-28 07:47:00,
2013-06-28 02:52:00,77.8,70.8,29.76,SSW,194,0.0,1.0,79,0.00,,CLR,0.00,VWS V14.01,2013-06-28 07:52:00,
2013-06-28 02:57:00,77.7,70.7,29.77,SSW,194,0.0,1.0,79,0.00,,CLR,0.00,VWS V14.01,2013-06-28 07:57:00,
2013-06-28 03:02:00,77.6,70.9,29.76,SSW,194,0.0,0.0,80,0.00,,CLR,0.00,VWS V14.01,2013-06-28 08:02:00,
2013-06-28 03:07:00,77.6,70.9,29.75,SSW,194,0.0,0.0,80,0.00,,CLR,0.00,VWS V14.01,2013-06-28 08:07:00,
2013-06-28 03:12:00,77.5,70.8,29.76,SSW,194,0.0,0.0,80,0.00,,CLR,0.00,VWS V14.01,2013-06-28 08:12:00,
2013-06-28 03:17:00,77.4,70.8,29.75,SSW,194,0.0,0.0,80,0.00,,CLR,0.00,VWS V14.01,2013-06-28 08:17:00,
2013-06-28 03:22:00,77.3,70.7,29.75,SSW,194,0.0,0.0,80,0.00,,CLR,0.00,VWS V14.01,2013-06-28 08:22:00,
2013-06-28 03:27:00,77.2,70.6,29.75,SSW,194,0.0,1.0,80,0.00,,CLR,0.00,VWS V14.01,2013-06-28 08:27:00,
2013-06-28 03:32:00,77.1,70.5,29.74,SSW,194,0.0,0.0,80,0.00,,CLR,0.00,VWS V14.01,2013-06-28 08:32:00,
2013-06-28 03:37:00,77.0,70.7,29.74,SSW,194,0.0,0.0,81,0.00,,CLR,0.00,VWS V14.01,2013-06-28 08:37:00,
2013-06-28 03:42:00,76.8,70.5,29.73,SSW,194,0.0,0.0,81,0.00,,CLR,0.00,VWS V14.01,2013-06-28 08:42:00,
2013-06-28 03:47:00,76.6,70.3,29.74,SSW,194,0.0,1.0,81,0.00,,CLR,0.00,VWS V14.01,2013-06-28 08:47:00,
2013-06-28 03:52:00,76.4,70.5,29.74,SSW,194,0.0,0.0,82,0.00,,CLR,0.00,VWS V14.01,2013-06-28 08:52:00,
2013-06-28 03:57:00,76.3,70.4,29.74,SSW,194,0.0,1.0,82,0.00,,CLR,0.00,VWS V14.01,2013-06-28 08:57:00,
2013-06-28 04:02:00,76.2,70.3,29.74,SSW,194,0.0,0.0,82,0.00,,CLR,0.00,VWS V14.01,2013-06-28 09:02:00,
2013-06-28 04:07:00,76.2,70.3,29.74,SSW,194,0.0,0.0,82,0.00,,CLR,0.00,VWS V14.01,2013-06-28 09:07:00,
2013-06-28 04:12:00,76.2,70.3,29.74,SSW,194,0.0,0.0,82,0.00,,CLR,0.00,VWS V14.01,2013-06-28 09:12:00,
2013-06-28 04:17:00,76.1,70.2,29.74,SSW,194,0.0,2.0,82,0.00,,CLR,0.00,VWS V14.01,2013-06-28 09:17:00,
2013-06-28 04:22:00,76.1,70.6,29.76,SSW,194,2.0,4.0,83,0.00,,CLR,0.00,VWS V14.01,2013-06-28 09:22:00,
2013-06-28 04:27:00,76.1,70.6,29.75,SW,234,0.0,8.0,83,0.00,,CLR,0.00,VWS V14.01,2013-06-28 09:27:00,
2013-06-28 04:32:00,76.1,70.6,29.75,SW,234,0.0,1.0,83,0.00,,CLR,0.00,VWS V14.01,2013-06-28 09:32:00,
2013-06-28 04:37:00,76.1,70.2,29.75,SW,234,0.0,4.0,82,0.00,,CLR,0.00,VWS V14.01,2013-06-28 09:37:00,
2013-06-28 04:42:00,76.1,70.2,29.75,SW,234,0.0,0.0,82,0.00,,CLR,0.00,VWS V14.01,2013-06-28 09:42:00,
2013-06-28 04:47:00,76.0,70.1,29.75,SW,234,0.0,1.0,82,0.00,,CLR,0.00,VWS V14.01,2013-06-28 09:47:00,
2013-06-28 04:52:00,76.0,70.1,29.75,SW,234,0.0,1.0,82,0.00,,CLR,0.00,VWS V14.01,2013-06-28 09:52:00,
2013-06-28 04:57:00,76.0,70.5,29.75,SW,234,0.0,2.0,83,0.00,,CLR,0.00,VWS V14.01,2013-06-28 09:57:00,
2013-06-28 05:02:00,76.0,70.5,29.75,SW,234,0.0,0.0,83,0.00,,CLR,0.00,VWS V14.01,2013-06-28 10:02:00,
2013-06-28 05:07:00,75.9,70.4,29.76,SW,234,1.0,2.0,83,0.00,,CLR,0.00,VWS V14.01,2013-06-28 10:07:00,
2013-06-28 05:12:00,75.8,70.3,29.76,SW,234,0.0,0.0,83,0.00,,CLR,0.00,VWS V14.01,2013-06-28 10:12:00,
2013-06-28 05:17:00,75.8,70.3,29.76,SW,234,0.0,4.0,83,0.00,,CLR,0.00,VWS V14.01,2013-06-28 10:17:00,
2013-06-28 05:22:00,75.8,70.3,29.76,SW,234,0.0,1.0,83,0.00,,CLR,0.00,VWS V14.01,2013-06-28 10:22:00,
2013-06-28 05:27:00,75.8,70.3,29.76,SW,233,3.0,3.0,83,0.00,,CLR,0.00,VWS V14.01,2013-06-28 10:27:00,
2013-06-28 05:32:00,75.9,70.4,29.76,SW,234,0.0,0.0,83,0.00,,CLR,0.00,VWS V14.01,2013-06-28 10:32:00,
2013-06-28 05:37:00,76.0,70.5,29.76,SW,234,0.0,1.0,83,0.00,,CLR,0.00,VWS V14.01,2013-06-28 10:37:00,
2013-06-28 05:42:00,76.0,70.5,29.76,SW,234,0.0,0.0,83,0.00,,CLR,0.00,VWS V14.01,2013-06-28 10:42:00,
2013-06-28 05:47:00,76.0,70.5,29.76,SW,234,0.0,4.0,83,0.00,,CLR,0.00,VWS V14.01,2013-06-28 10:47:00,
2013-06-28 05:52:00,76.1,70.6,29.75,SW,234,0.0,0.0,83,0.00,,CLR,0.00,VWS V14.01,2013-06-28 10:52:00,
2013-06-28 05:57:00,76.2,70.7,29.75,SW,234,0.0,4.0,83,0.00,,CLR,0.00,VWS V14.01,2013-06-28 10:57:00,
2013-06-28 06:02:00,76.3,70.8,29.75,SW,234,0.0,4.0,83,0.00,,CLR,0.00,VWS V14.01,2013-06-28 11:02:00,
2013-06-28 06:07:00,76.5,71.0,29.75,SW,234,0.0,4.0,83,0.00,,CLR,0.00,VWS V14.01,2013-06-28 11:07:00,
2013-06-28 06:12:00,76.6,71.1,29.75,SW,234,0.0,1.0,83,0.00,,CLR,0.00,VWS V14.01,2013-06-28 11:12:00,
2013-06-28 06:17:00,76.6,71.1,29.75,SW,234,0.0,3.0,83,0.00,,CLR,0.00,VWS V14.01,2013-06-28 11:17:00,
2013-06-28 06:22:00,76.5,71.0,29.75,SW,234,0.0,0.0,83,0.00,,CLR,0.00,VWS V14.01,2013-06-28 11:22:00,
2013-06-28 06:27:00,76.4,70.9,29.75,SW,234,0.0,1.0,83,0.00,,CLR,0.00,VWS V14.01,2013-06-28 11:27:00,
2013-06-28 06:32:00,76.2,71.0,29.74,SW,234,0.0,3.0,84,0.00,,CLR,0.00,VWS V14.01,2013-06-28 11:32:00,
2013-06-28 06:37:00,76.2,71.0,29.74,SW,234,0.0,4.0,84,0.00,,CLR,0.00,VWS V14.01,2013-06-28 11:37:00,
2013-06-28 06:42:00,76.1,70.9,29.74,SW,234,1.0,3.0,84,0.00,,CLR,0.00,VWS V14.01,2013-06-28 11:42:00,
2013-06-28 06:47:00,76.1,70.9,29.74,SW,234,0.0,3.0,84,0.00,,CLR,0.00,VWS V14.01,2013-06-28 11:47:00,
2013-06-28 06:52:00,76.2,71.0,29.74,SW,234,0.0,1.0,84,0.00,,CLR,0.00,VWS V14.01,2013-06-28 11:52:00,
2013-06-28 06:57:00,76.2,71.0,29.74,SW,234,0.0,3.0,84,0.00,,CLR,0.00,VWS V14.01,2013-06-28 11:57:00,
2013-06-28 07:02:00,76.4,71.2,29.74,SW,234,0.0,1.0,84,0.00,,CLR,0.00,VWS V14.01,2013-06-28 12:02:00,
2013-06-28 07:07:00,76.6,71.4,29.74,SW,234,0.0,4.0,84,0.00,,CLR,0.00,VWS V14.01,2013-06-28 12:07:00,
2013-06-28 07:18:00,76.9,71.7,29.73,WSW,240,0.0,5.0,84,0.00,,CLR,0.00,VWS V14.01,2013-06-28 12:18:00,
2013-06-28 07:23:00,77.2,72.0,29.73,WSW,240,1.0,1.0,84,0.00,,CLR,0.00,VWS V14.01,2013-06-28 12:23:00,
2013-06-28 07:28:00,77.5,72.3,29.73,WSW,239,1.0,1.0,84,0.00,,CLR,0.00,VWS V14.01,2013-06-28 12:28:00,
2013-06-28 07:33:00,77.7,72.1,29.73,WSW,239,0.0,3.0,83,0.00,,CLR,0.00,VWS V14.01,2013-06-28 12:33:00,
2013-06-28 07:38:00,77.9,72.3,29.73,WSW,239,0.0,3.0,83,0.00,,CLR,0.00,VWS V14.01,2013-06-28 12:38:00,
2013-06-28 07:43:00,78.2,72.3,29.74,WSW,240,0.0,0.0,82,0.00,,CLR,0.00,VWS V14.01,2013-06-28 12:43:00,
2013-06-28 07:48:00,78.4,72.4,29.74,SW,229,0.0,6.0,82,0.00,,CLR,0.00,VWS V14.01,2013-06-28 12:48:00,
2013-06-28 07:53:00,78.6,72.3,29.74,SW,236,1.0,2.0,81,0.00,,CLR,0.00,VWS V14.01,2013-06-28 12:53:00,
2013-06-28 07:58:00,78.7,72.4,29.74,WSW,245,0.0,7.0,81,0.00,,CLR,0.00,VWS V14.01,2013-06-28 12:58:00,
2013-06-28 08:03:00,78.9,72.2,29.74,WSW,238,0.0,3.0,80,0.00,,CLR,0.00,VWS V14.01,2013-06-28 13:03:00,
2013-06-28 08:08:00,79.0,71.9,29.74,WSW,238,0.0,5.0,79,0.00,,CLR,0.00,VWS V14.01,2013-06-28 13:08:00,
2013-06-28 08:13:00,79.2,72.1,29.74,WSW,238,0.0,1.0,79,0.00,,CLR,0.00,VWS V14.01,2013-06-28 13:13:00,
2013-06-28 08:18:00,79.4,72.3,29.74,WSW,237,0.0,2.0,79,0.00,,CLR,0.00,VWS V14.01,2013-06-28 13:18:00,
2013-06-28 08:23:00,79.7,72.6,29.74,SW,236,0.0,1.0,79,0.00,,CLR,0.00,VWS V14.01,2013-06-28 13:23:00,
2013-06-28 08:28:00,79.9,72.1,29.74,WSW,249,0.0,6.0,77,0.00,,CLR,0.00,VWS V14.01,2013-06-28 13:28:00,
2013-06-28 08:33:00,79.9,72.4,29.74,WSW,250,0.0,1.0,78,0.00,,CLR,0.00,VWS V14.01,2013-06-28 13:33:00,
2013-06-28 08:38:00,79.7,71.9,29.73,WSW,247,1.0,6.0,77,0.00,,CLR,0.00,VWS V14.01,2013-06-28 13:38:00,
2013-06-28 08:43:00,79.8,72.3,29.74,WSW,248,0.0,3.0,78,0.00,,CLR,0.00,VWS V14.01,2013-06-28 13:43:00,
2013-06-28 08:48:00,79.7,72.2,29.74,WSW,247,1.0,3.0,78,0.00,,CLR,0.00,VWS V14.01,2013-06-28 13:48:00,
2013-06-28 08:53:00,79.8,71.9,29.74,WSW,247,0.0,1.0,77,0.00,,CLR,0.00,VWS V14.01,2013-06-28 13:53:00,
2013-06-28 08:58:00,80.0,72.5,29.74,WSW,247,0.0,1.0,78,0.00,,CLR,0.00,VWS V14.01,2013-06-28 13:58:00,
2013-06-28 09:03:00,80.2,72.3,29.74,WSW,244,0.0,1.0,77,0.00,,CLR,0.00,VWS V14.01,2013-06-28 14:03:00,
2013-06-28 09:08:00,80.5,72.2,29.74,WSW,244,0.0,3.0,76,0.00,,CLR,0.00,VWS V14.01,2013-06-28 14:08:00,
2013-06-28 09:13:00,80.5,72.2,29.74,WSW,244,3.0,4.0,76,0.00,,CLR,0.00,VWS V14.01,2013-06-28 14:13:00,
2013-06-28 09:18:00,80.3,72.1,29.74,WSW,244,3.0,4.0,76,0.00,,CLR,0.00,VWS V14.01,2013-06-28 14:18:00,
2013-06-28 09:23:00,80.3,72.1,29.74,WSW,244,0.0,0.0,76,0.00,,CLR,0.00,VWS V14.01,2013-06-28 14:23:00,
2013-06-28 09:28:00,80.5,72.2,29.74,WSW,243,0.0,4.0,76,0.00,,CLR,0.00,VWS V14.01,2013-06-28 14:28:00,
2013-06-28 09:33:00,80.7,71.7,29.74,WSW,243,0.0,1.0,74,0.00,,CLR,0.00,VWS V14.01,2013-06-28 14:33:00,
2013-06-28 09:38:00,81.1,72.0,29.74,WSW,243,0.0,1.0,74,0.00,,CLR,0.00,VWS V14.01,2013-06-28 14:38:00,
2013-06-28 09:43:00,81.8,72.7,29.73,WSW,243,0.0,1.0,74,0.00,,CLR,0.00,VWS V14.01,2013-06-28 14:43:00,
2013-06-28 09:48:00,82.2,72.3,29.73,SW,236,3.0,6.0,72,0.00,,CLR,0.00,VWS V14.01,2013-06-28 14:48:00,
2013-06-28 09:53:00,82.2,71.9,29.73,SW,235,0.0,1.0,71,0.00,,CLR,0.00,VWS V14.01,2013-06-28 14:53:00,
2013-06-28 09:58:00,82.3,72.0,29.73,WSW,241,0.0,3.0,71,0.00,,CLR,0.00,VWS V14.01,2013-06-28 14:58:00,
2013-06-28 10:03:00,82.7,71.1,29.73,WSW,241,2.0,6.0,68,0.00,,CLR,0.00,VWS V14.01,2013-06-28 15:03:00,
2013-06-28 10:08:00,82.9,71.3,29.73,WSW,242,0.0,6.0,68,0.00,,CLR,0.00,VWS V14.01,2013-06-28 15:08:00,
2013-06-28 10:13:00,83.3,71.6,29.73,WSW,242,0.0,1.0,68,0.00,,CLR,0.00,VWS V14.01,2013-06-28 15:13:00,
2013-06-28 10:18:00,84.1,71.5,29.73,WSW,243,0.0,2.0,66,0.00,,CLR,0.00,VWS V14.01,2013-06-28 15:18:00,
2013-06-28 10:23:00,84.7,72.1,29.73,WSW,243,1.0,1.0,66,0.00,,CLR,0.00,VWS V14.01,2013-06-28 15:23:00,
2013-06-28 10:28:00,84.9,70.4,29.73,WSW,251,0.0,8.0,62,0.00,,CLR,0.00,VWS V14.01,2013-06-28 15:28:00,
2013-06-28 10:33:00,84.5,70.1,29.72,WSW,241,5.0,7.0,62,0.00,,CLR,0.00,VWS V14.01,2013-06-28 15:33:00,
2013-06-28 10:38:00,84.1,70.2,29.72,WSW,250,0.0,7.0,63,0.00,,CLR,0.00,VWS V14.01,2013-06-28 15:38:00,
2013-06-28 10:43:00,84.4,70.4,29.73,WSW,249,1.0,1.0,63,0.00,,CLR,0.00,VWS V14.01,2013-06-28 15:43:00,
2013-06-28 10:48:00,84.8,70.3,29.73,WSW,249,2.0,2.0,62,0.00,,CLR,0.00,VWS V14.01,2013-06-28 15:48:00,
2013-06-28 10:53:00,85.5,70.5,29.73,WSW,248,0.0,2.0,61,0.00,,CLR,0.00,VWS V14.01,2013-06-28 15:53:00,
2013-06-28 10:58:00,85.7,70.2,29.73,WSW,247,0.0,3.0,60,0.00,,CLR,0.00,VWS V14.01,2013-06-28 15:58:00,
2013-06-28 11:03:00,85.8,70.8,29.73,WSW,242,0.0,1.0,61,0.00,,CLR,0.00,VWS V14.01,2013-06-28 16:03:00,
2013-06-28 11:08:00,85.7,69.7,29.73,WSW,246,4.0,6.0,59,0.00,,CLR,0.00,VWS V14.01,2013-06-28 16:08:00,
2013-06-28 11:13:00,86.2,71.2,29.73,WSW,245,0.0,1.0,61,0.00,,CLR,0.00,VWS V14.01,2013-06-28 16:13:00,
2013-06-28 11:18:00,86.3,70.3,29.73,SW,236,0.0,9.0,59,0.00,,CLR,0.00,VWS V14.01,2013-06-28 16:18:00,
2013-06-28 11:23:00,85.9,68.4,29.73,West,260,0.0,1.0,56,0.00,,CLR,0.00,VWS V14.01,2013-06-28 16:23:00,
2013-06-28 11:28:00,86.3,69.8,29.73,SW,231,1.0,4.0,58,0.00,,CLR,0.00,VWS V14.01,2013-06-28 16:28:00,
2013-06-28 11:33:00,86.7,69.7,29.73,West,272,0.0,0.0,57,0.00,,CLR,0.00,VWS V14.01,2013-06-28 16:33:00,
2013-06-28 11:38:00,87.7,69.0,29.73,West,263,2.0,3.0,54,0.00,,CLR,0.00,VWS V14.01,2013-06-28 16:38:00,
2013-06-28 11:43:00,87.0,69.4,29.73,WSW,239,1.0,3.0,56,0.00,,CLR,0.00,VWS V14.01,2013-06-28 16:43:00,
2013-06-28 11:48:00,87.6,70.0,29.72,North,350,0.0,3.0,56,0.00,,CLR,0.00,VWS V14.01,2013-06-28 16:48:00,
2013-06-28 11:53:00,86.6,68.5,29.73,West,265,0.0,2.0,55,0.00,,CLR,0.00,VWS V14.01,2013-06-28 16:53:00,
2013-06-28 11:58:00,85.9,67.9,29.73,West,265,0.0,6.0,55,0.00,,CLR,0.00,VWS V14.01,2013-06-28 16:58:00,
2013-06-28 12:03:00,85.8,67.2,29.72,WSW,250,0.0,4.0,54,0.00,,CLR,0.00,VWS V14.01,2013-06-28 17:03:00,
2013-06-28 12:08:00,86.3,69.3,29.72,WNW,293,0.0,7.0,57,0.00,,CLR,0.00,VWS V14.01,2013-06-28 17:08:00,
2013-06-28 12:13:00,86.2,69.2,29.72,West,277,0.0,2.0,57,0.00,,CLR,0.00,VWS V14.01,2013-06-28 17:13:00,
2013-06-28 12:18:00,86.3,68.2,29.72,West,273,0.0,4.0,55,0.00,,CLR,0.00,VWS V14.01,2013-06-28 17:18:00,
2013-06-28 12:23:00,86.2,67.1,29.72,WSW,247,0.0,3.0,53,0.00,,CLR,0.00,VWS V14.01,2013-06-28 17:23:00,
2013-06-28 12:28:00,85.8,67.8,29.72,WSW,251,0.0,6.0,55,0.00,,CLR,0.00,VWS V14.01,2013-06-28 17:28:00,
2013-06-28 12:33:00,86.3,68.2,29.72,WSW,250,1.0,10.0,55,0.00,,CLR,0.00,VWS V14.01,2013-06-28 17:33:00,
2013-06-28 12:38:00,86.5,68.4,29.72,West,275,4.0,10.0,55,0.00,,CLR,0.00,VWS V14.01,2013-06-28 17:38:00,
2013-06-28 12:43:00,86.3,67.2,29.72,WSW,241,0.0,12.0,53,0.00,,CLR,0.00,VWS V14.01,2013-06-28 17:43:00,
2013-06-28 12:48:00,86.3,67.7,29.72,SW,236,0.0,12.0,54,0.00,,CLR,0.00,VWS V14.01,2013-06-28 17:48:00,
2013-06-28 12:53:00,86.5,67.9,29.71,WSW,248,0.0,6.0,54,0.00,,CLR,0.00,VWS V14.01,2013-06-28 17:53:00,
2013-06-28 12:58:00,87.0,66.7,29.71,NW,313,0.0,10.0,51,0.00,,CLR,0.00,VWS V14.01,2013-06-28 17:58:00,
2013-06-28 13:03:00,87.5,66.6,29.71,WSW,251,4.0,8.0,50,0.00,,CLR,0.00,VWS V14.01,2013-06-28 18:03:00,
2013-06-28 13:08:00,87.5,68.3,29.71,WSW,245,0.0,8.0,53,0.00,,CLR,0.00,VWS V14.01,2013-06-28 18:08:00,
2013-06-28 13:13:00,88.1,67.7,29.71,SSW,212,0.0,2.0,51,0.00,,CLR,0.00,VWS V14.01,2013-06-28 18:13:00,
2013-06-28 13:21:00,87.4,67.6,29.71,SSW,203,5.0,11.0,52,0.00,,CLR,0.00,VWS V14.01,2013-06-28 18:21:00,
2013-06-28 13:28:00,88.0,68.7,29.70,WNW,289,3.0,5.0,53,0.00,,CLR,0.00,VWS V14.01,2013-06-28 18:28:00,
2013-06-28 13:33:00,88.0,67.6,29.70,SW,229,0.0,3.0,51,0.00,,CLR,0.00,VWS V14.01,2013-06-28 18:33:00,
2013-06-28 13:38:00,87.1,66.2,29.70,SW,226,0.0,3.0,50,0.00,,CLR,0.00,VWS V14.01,2013-06-28 18:38:00,
2013-06-28 13:43:00,86.8,65.9,29.69,WSW,246,3.0,4.0,50,0.00,,CLR,0.00,VWS V14.01,2013-06-28 18:43:00,
2013-06-28 13:48:00,86.5,67.3,29.69,WSW,249,0.0,9.0,53,0.00,,CLR,0.00,VWS V14.01,2013-06-28 18:48:00,
2013-06-28 13:53:00,87.7,67.9,29.68,West,280,4.0,6.0,52,0.00,,CLR,0.00,VWS V14.01,2013-06-28 18:53:00,
2013-06-28 13:58:00,87.6,66.1,29.68,WSW,238,0.0,6.0,49,0.00,,CLR,0.00,VWS V14.01,2013-06-28 18:58:00,
2013-06-28 14:03:00,87.1,66.8,29.68,SW,229,2.0,6.0,51,0.00,,CLR,0.00,VWS V14.01,2013-06-28 19:03:00,
2013-06-28 14:08:00,87.8,68.0,29.68,West,263,2.0,9.0,52,0.00,,CLR,0.00,VWS V14.01,2013-06-28 19:08:00,
2013-06-28 14:13:00,88.8,68.9,29.68,WSW,247,0.0,4.0,52,0.00,,CLR,0.00,VWS V14.01,2013-06-28 19:13:00,
2013-06-28 14:18:00,88.9,66.7,29.68,WSW,241,0.0,10.0,48,0.00,,CLR,0.00,VWS V14.01,2013-06-28 19:18:00,
2013-06-28 14:23:00,89.2,67.6,29.68,SW,236,6.0,6.0,49,0.00,,CLR,0.00,VWS V14.01,2013-06-28 19:23:00,
2013-06-28 14:28:00,88.9,66.1,29.67,WSW,255,0.0,8.0,47,0.00,,CLR,0.00,VWS V14.01,2013-06-28 19:28:00,
2013-06-28 14:33:00,89.2,67.6,29.67,West,261,7.0,9.0,49,0.00,,CLR,0.00,VWS V14.01,2013-06-28 19:33:00,
2013-06-28 14:38:00,89.2,67.0,29.67,South,182,2.0,10.0,48,0.00,,CLR,0.00,VWS V14.01,2013-06-28 19:38:00,
2013-06-28 14:43:00,88.9,66.7,29.67,WSW,250,5.0,7.0,48,0.00,,CLR,0.00,VWS V14.01,2013-06-28 19:43:00,
2013-06-28 14:48:00,88.5,66.3,29.67,West,273,0.0,12.0,48,0.00,,CLR,0.00,VWS V14.01,2013-06-28 19:48:00,
2013-06-28 14:53:00,88.8,67.8,29.67,SSE,157,1.0,9.0,50,0.00,,CLR,0.00,VWS V14.01,2013-06-28 19:53:00,
2013-06-28 14:58:00,89.0,68.0,29.67,WNW,288,3.0,9.0,50,0.00,,CLR,0.00,VWS V14.01,2013-06-28 19:58:00,
2013-06-28 15:03:00,89.3,67.7,29.66,WSW,240,2.0,9.0,49,0.00,,CLR,0.00,VWS V14.01,2013-06-28 20:03:00,
2013-06-28 15:08:00,88.5,66.9,29.66,WSW,238,1.0,12.0,49,0.00,,CLR,0.00,VWS V14.01,2013-06-28 20:08:00,
2013-06-28 15:13:00,89.3,67.1,29.66,NE,39,2.0,3.0,48,0.00,,CLR,0.00,VWS V14.01,2013-06-28 20:13:00,
2013-06-28 15:18:00,89.9,67.6,29.66,NNE,12,0.0,5.0,48,0.00,,CLR,0.00,VWS V14.01,2013-06-28 20:18:00,
2013-06-28 15:23:00,89.0,66.8,29.66,NNE,19,0.0,4.0,48,0.00,,CLR,0.00,VWS V14.01,2013-06-28 20:23:00,
2013-06-28 15:28:00,88.8,62.8,29.66,SE,134,2.0,10.0,42,0.00,,CLR,0.00,VWS V14.01,2013-06-28 20:28:00,
2013-06-28 15:34:00,88.9,64.2,29.66,ENE,71,5.0,10.0,44,0.00,,CLR,0.00,VWS V14.01,2013-06-28 20:34:00,
2013-06-28 15:39:00,89.1,65.6,29.66,North,355,7.0,10.0,46,0.00,,CLR,0.00,VWS V14.01,2013-06-28 20:39:00,
2013-06-28 15:44:00,88.7,65.3,29.66,SW,236,1.0,5.0,46,0.00,,CLR,0.00,VWS V14.01,2013-06-28 20:44:00,
2013-06-28 15:49:00,88.5,64.5,29.65,West,264,0.0,10.0,45,0.00,,CLR,0.00,VWS V14.01,2013-06-28 20:49:00,
2013-06-28 15:54:00,88.6,63.9,29.65,NW,308,5.0,5.0,44,0.00,,CLR,0.00,VWS V14.01,2013-06-28 20:54:00,
2013-06-28 15:59:00,88.7,65.3,29.65,NW,304,4.0,9.0,46,0.00,,CLR,0.00,VWS V14.01,2013-06-28 20:59:00,
2013-06-28 16:04:00,88.1,65.3,29.66,North,9,1.0,3.0,47,0.00,,CLR,0.00,VWS V14.01,2013-06-28 21:04:00,
2013-06-28 16:09:00,87.8,65.7,29.66,WNW,296,1.0,5.0,48,0.00,,CLR,0.00,VWS V14.01,2013-06-28 21:09:00,
2013-06-28 16:14:00,88.6,67.6,29.66,West,265,1.0,4.0,50,0.00,,CLR,0.00,VWS V14.01,2013-06-28 21:14:00,
2013-06-28 16:19:00,88.1,63.5,29.66,NNW,347,0.0,8.0,44,0.00,,CLR,0.00,VWS V14.01,2013-06-28 21:19:00,
2013-06-28 16:24:00,88.7,65.3,29.66,SW,227,1.0,1.0,46,0.00,,CLR,0.00,VWS V14.01,2013-06-28 21:24:00,
2013-06-28 16:29:00,88.5,64.5,29.66,WNW,292,2.0,11.0,45,0.00,,CLR,0.00,VWS V14.01,2013-06-28 21:29:00,
2013-06-28 16:34:00,88.3,63.7,29.65,NNE,26,0.0,5.0,44,0.00,,CLR,0.00,VWS V14.01,2013-06-28 21:34:00,
2013-06-28 16:39:00,88.1,63.5,29.66,NNE,26,0.0,5.0,44,0.00,,CLR,0.00,VWS V14.01,2013-06-28 21:39:00,
2013-06-28 16:44:00,87.2,63.3,29.66,West,260,0.0,2.0,45,0.00,,CLR,0.00,VWS V14.01,2013-06-28 21:44:00,
2013-06-28 16:49:00,86.4,63.8,29.66,SW,232,2.0,2.0,47,0.00,,CLR,0.00,VWS V14.01,2013-06-28 21:49:00,
2013-06-28 16:54:00,86.6,64.6,29.66,South,186,0.0,3.0,48,0.00,,CLR,0.00,VWS V14.01,2013-06-28 21:54:00,
2013-06-28 16:59:00,86.4,64.4,29.66,SW,214,0.0,5.0,48,0.00,,CLR,0.00,VWS V14.01,2013-06-28 21:59:00,
2013-06-28 17:04:00,86.8,65.4,29.66,NW,308,0.0,4.0,49,0.00,,CLR,0.00,VWS V14.01,2013-06-28 22:04:00,
2013-06-28 17:09:00,86.9,64.9,29.65,WNW,302,1.0,9.0,48,0.00,,CLR,0.00,VWS V14.01,2013-06-28 22:09:00,
2013-06-28 17:14:00,86.6,64.6,29.66,WSW,256,2.0,9.0,48,0.00,,CLR,0.00,VWS V14.01,2013-06-28 22:14:00,
2013-06-28 17:19:00,86.5,63.9,29.66,WNW,284,0.0,9.0,47,0.00,,CLR,0.00,VWS V14.01,2013-06-28 22:19:00,
2013-06-28 17:24:00,86.3,63.1,29.66,NW,319,1.0,6.0,46,0.00,,CLR,0.00,VWS V14.01,2013-06-28 22:24:00,
2013-06-28 17:29:00,86.1,62.9,29.66,West,273,2.0,6.0,46,0.00,,CLR,0.00,VWS V14.01,2013-06-28 22:29:00,
2013-06-28 17:34:00,85.7,62.6,29.66,WSW,249,1.0,6.0,46,0.00,,CLR,0.00,VWS V14.01,2013-06-28 22:34:00,
2013-06-28 17:39:00,85.6,60.6,29.66,WNW,286,1.0,11.0,43,0.00,,CLR,0.00,VWS V14.01,2013-06-28 22:39:00,
2013-06-28 17:44:00,85.4,61.0,29.65,West,272,0.0,9.0,44,0.00,,CLR,0.00,VWS V14.01,2013-06-28 22:44:00,
2013-06-28 17:49:00,85.2,60.2,29.65,NW,307,0.0,9.0,43,0.00,,CLR,0.00,VWS V14.01,2013-06-28 22:49:00,
2013-06-28 17:54:00,85.1,59.5,29.65,West,263,1.0,7.0,42,0.00,,CLR,0.00,VWS V14.01,2013-06-28 22:54:00,
2013-06-28 17:59:00,85.0,60.7,29.65,West,279,0.0,8.0,44,0.00,,CLR,0.00,VWS V14.01,2013-06-28 22:59:00,
2013-06-28 18:04:00,84.9,59.9,29.65,NNE,17,1.0,5.0,43,0.00,,CLR,0.00,VWS V14.01,2013-06-28 23:04:00,
2013-06-28 18:09:00,84.8,60.5,29.65,WNW,288,4.0,10.0,44,0.00,,CLR,0.00,VWS V14.01,2013-06-28 23:09:00,
2013-06-28 18:14:00,84.7,60.4,29.65,SW,216,0.0,3.0,44,0.00,,CLR,0.00,VWS V14.01,2013-06-28 23:14:00,
2013-06-28 18:19:00,84.6,60.3,29.65,ESE,116,4.0,4.0,44,0.00,,CLR,0.00,VWS V14.01,2013-06-28 23:19:00,
2013-06-28 18:24:00,84.6,60.3,29.65,WSW,249,2.0,3.0,44,0.00,,CLR,0.00,VWS V14.01,2013-06-28 23:24:00,
2013-06-28 18:29:00,84.5,61.5,29.65,WSW,258,0.0,12.0,46,0.00,,CLR,0.00,VWS V14.01,2013-06-28 23:29:00,
2013-06-28 18:34:00,84.4,60.8,29.64,WSW,242,0.0,6.0,45,0.00,,CLR,0.00,VWS V14.01,2013-06-28 23:34:00,
2013-06-28 18:39:00,84.2,61.2,29.65,SSW,205,0.0,6.0,46,0.00,,CLR,0.00,VWS V14.01,2013-06-28 23:39:00,
2013-06-28 18:44:00,84.1,61.7,29.65,SSW,205,0.0,2.0,47,0.00,,CLR,0.00,VWS V14.01,2013-06-28 23:44:00,
2013-06-28 18:49:00,83.8,61.4,29.65,SSW,205,0.0,3.0,47,0.00,,CLR,0.00,VWS V14.01,2013-06-28 23:49:00,
2013-06-28 18:54:00,83.6,61.3,29.65,SSW,196,0.0,1.0,47,0.00,,CLR,0.00,VWS V14.01,2013-06-28 23:54:00,
2013-06-28 18:59:00,83.4,61.7,29.65,NW,306,0.0,4.0,48,0.00,,CLR,0.00,VWS V14.01,2013-06-28 23:59:00,
2013-06-28 19:04:00,83.2,62.1,29.65,West,271,0.0,0.0,49,0.00,,CLR,0.00,VWS V14.01,2013-06-29 00:04:00,
2013-06-28 19:09:00,83.0,61.9,29.65,West,270,0.0,1.0,49,0.00,,CLR,0.00,VWS V14.01,2013-06-29 00:09:00,
2013-06-28 19:14:00,82.8,62.3,29.65,South,188,0.0,1.0,50,0.00,,CLR,0.00,VWS V14.01,2013-06-29 00:14:00,
2013-06-28 19:19:00,82.7,62.2,29.65,South,191,0.0,5.0,50,0.00,,CLR,0.00,VWS V14.01,2013-06-29 00:19:00,
2013-06-28 19:24:00,82.5,62.0,29.65,South,191,0.0,1.0,50,0.00,,CLR,0.00,VWS V14.01,2013-06-29 00:24:00,
2013-06-28 19:29:00,82.3,61.8,29.65,South,190,0.0,2.0,50,0.00,,CLR,0.00,VWS V14.01,2013-06-29 00:29:00,
2013-06-28 19:34:00,82.1,60.5,29.65,SSW,211,0.0,2.0,48,0.00,,CLR,0.00,VWS V14.01,2013-06-29 00:34:00,
2013-06-28 19:39:00,82.0,60.4,29.65,SSW,213,0.0,4.0,48,0.00,,CLR,0.00,VWS V14.01,2013-06-29 00:39:00,
2013-06-28 19:44:00,81.9,61.5,29.65,SSW,213,0.0,0.0,50,0.00,,CLR,0.00,VWS V14.01,2013-06-29 00:44:00,
2013-06-28 19:49:00,81.8,60.8,29.66,SSW,207,0.0,2.0,49,0.00,,CLR,0.00,VWS V14.01,2013-06-29 00:49:00,
2013-06-28 19:54:00,81.5,60.5,29.65,SSW,207,0.0,0.0,49,0.00,,CLR,0.00,VWS V14.01,2013-06-29 00:54:00,
2013-06-28 19:59:00,81.3,60.3,29.66,SSW,207,0.0,1.0,49,0.00,,CLR,0.00,VWS V14.01,2013-06-29 00:59:00,
2013-06-28 20:04:00,81.0,61.2,29.66,SSW,207,0.0,0.0,51,0.00,,CLR,0.00,VWS V14.01,2013-06-29 01:04:00,
2013-06-28 20:09:00,80.8,61.0,29.66,SSW,207,0.0,4.0,51,0.00,,CLR,0.00,VWS V14.01,2013-06-29 01:09:00,
2013-06-28 20:14:00,80.5,60.7,29.66,SSW,207,0.0,1.0,51,0.00,,CLR,0.00,VWS V14.01,2013-06-29 01:14:00,
2013-06-28 20:19:00,80.4,61.2,29.66,SSW,207,0.0,2.0,52,0.00,,CLR,0.00,VWS V14.01,2013-06-29 01:19:00,
2013-06-28 20:24:00,80.2,61.0,29.66,SSW,207,0.0,3.0,52,0.00,,CLR,0.00,VWS V14.01,2013-06-29 01:24:00,
2013-06-28 20:29:00,79.9,61.3,29.66,SSW,207,0.0,3.0,53,0.00,,CLR,0.00,VWS V14.01,2013-06-29 01:29:00,
2013-06-28 20:34:00,79.6,61.0,29.66,SSW,207,0.0,1.0,53,0.00,,CLR,0.00,VWS V14.01,2013-06-29 01:34:00,
2013-06-28 20:39:00,79.4,61.3,29.65,SSW,207,0.0,1.0,54,0.00,,CLR,0.00,VWS V14.01,2013-06-29 01:39:00,
2013-06-28 20:44:00,79.1,61.0,29.66,SSW,207,0.0,0.0,54,0.00,,CLR,0.00,VWS V14.01,2013-06-29 01:44:00,
2013-06-28 20:49:00,78.9,60.9,29.65,SSW,207,0.0,1.0,54,0.00,,CLR,0.00,VWS V14.01,2013-06-29 01:49:00,
2013-06-28 20:54:00,78.7,61.2,29.65,SSW,207,0.0,0.0,55,0.00,,CLR,0.00,VWS V14.01,2013-06-29 01:54:00,
2013-06-28 20:59:00,78.5,61.0,29.65,SSW,207,0.0,0.0,55,0.00,,CLR,0.00,VWS V14.01,2013-06-29 01:59:00,
2013-06-28 21:04:00,78.2,61.2,29.65,SSW,207,0.0,0.0,56,0.00,,CLR,0.00,VWS V14.01,2013-06-29 02:04:00,
2013-06-28 21:09:00,78.0,61.0,29.65,SSW,207,0.0,1.0,56,0.00,,CLR,0.00,VWS V14.01,2013-06-29 02:09:00,
2013-06-28 21:14:00,77.9,61.0,29.66,SSW,207,1.0,1.0,56,0.00,,CLR,0.00,VWS V14.01,2013-06-29 02:14:00,
2013-06-28 21:19:00,78.0,61.0,29.66,SSW,208,0.0,4.0,56,0.00,,CLR,0.00,VWS V14.01,2013-06-29 02:19:00,
2013-06-28 21:24:00,77.9,61.0,29.66,SSW,208,0.0,1.0,56,0.00,,CLR,0.00,VWS V14.01,2013-06-29 02:24:00,
2013-06-28 21:29:00,77.9,60.5,29.66,SSW,208,0.0,1.0,55,0.00,,CLR,0.00,VWS V14.01,2013-06-29 02:29:00,
2013-06-28 21:34:00,77.8,60.4,29.66,SSW,208,0.0,0.0,55,0.00,,CLR,0.00,VWS V14.01,2013-06-29 02:34:00,
2013-06-28 21:39:00,77.6,60.2,29.66,SSW,208,0.0,1.0,55,0.00,,CLR,0.00,VWS V14.01,2013-06-29 02:39:00,
2013-06-28 21:44:00,77.4,60.5,29.66,SSW,208,0.0,0.0,56,0.00,,CLR,0.00,VWS V14.01,2013-06-29 02:44:00,
2013-06-28 21:49:00,77.2,60.8,29.66,SSW,208,0.0,1.0,57,0.00,,CLR,0.00,VWS V14.01,2013-06-29 02:49:00,
2013-06-28 21:54:00,76.9,60.5,29.65,SSW,208,0.0,0.0,57,0.00,,CLR,0.00,VWS V14.01,2013-06-29 02:54:00,
2013-06-28 21:59:00,76.6,60.2,29.66,SSW,208,0.0,1.0,57,0.00,,CLR,0.00,VWS V14.01,2013-06-29 02:59:00,
2013-06-28 22:04:00,76.4,60.5,29.65,SSW,208,2.0,2.0,58,0.00,,CLR,0.00,VWS V14.01,2013-06-29 03:04:00,
2013-06-28 22:09:00,76.2,60.8,29.66,SSW,208,0.0,2.0,59,0.00,,CLR,0.00,VWS V14.01,2013-06-29 03:09:00,
2013-06-28 22:14:00,76.1,60.8,29.66,SSW,208,0.0,0.0,59,0.00,,CLR,0.00,VWS V14.01,2013-06-29 03:14:00,
2013-06-28 22:19:00,75.9,60.6,29.65,SSW,208,0.0,0.0,59,0.00,,CLR,0.00,VWS V14.01,2013-06-29 03:19:00,
2013-06-28 22:24:00,75.7,60.8,29.66,SSW,208,0.0,1.0,60,0.00,,CLR,0.00,VWS V14.01,2013-06-29 03:24:00,
2013-06-28 22:29:00,75.6,60.8,29.65,SSW,208,0.0,1.0,60,0.00,,CLR,0.00,VWS V14.01,2013-06-29 03:29:00,
2013-06-28 22:34:00,75.4,61.0,29.65,SSW,208,0.0,2.0,61,0.00,,CLR,0.00,VWS V14.01,2013-06-29 03:34:00,
2013-06-28 22:39:00,75.3,60.9,29.65,SSW,208,0.0,2.0,61,0.00,,CLR,0.00,VWS V14.01,2013-06-29 03:39:00,
2013-06-28 22:44:00,75.2,60.8,29.65,SSW,208,0.0,3.0,61,0.00,,CLR,0.00,VWS V14.01,2013-06-29 03:44:00,
2013-06-28 22:49:00,75.2,60.8,29.65,SSW,208,0.0,4.0,61,0.00,,CLR,0.00,VWS V14.01,2013-06-29 03:49:00,
2013-06-28 22:54:00,75.2,60.8,29.65,SSW,208,0.0,2.0,61,0.00,,CLR,0.00,VWS V14.01,2013-06-29 03:54:00,
2013-06-28 22:59:00,75.1,61.2,29.65,SSW,208,0.0,3.0,62,0.00,,CLR,0.00,VWS V14.01,2013-06-29 03:59:00,
2013-06-28 23:01:00,75.0,61.1,29.65,SSW,208,1.0,3.0,62,0.00,,CLR,0.00,VWS V14.01,2013-06-29 04:01:00,
2013-06-28 23:04:00,74.9,61.0,29.65,SSW,208,0.0,1.0,62,0.00,,CLR,0.00,VWS V14.01,2013-06-29 04:04:00,
2013-06-28 23:09:00,74.7,61.3,29.65,SSW,208,0.0,1.0,63,0.00,,CLR,0.00,VWS V14.01,2013-06-29 04:09:00,
2013-06-28 23:14:00,74.5,61.1,29.64,SSW,208,0.0,1.0,63,0.00,,CLR,0.00,VWS V14.01,2013-06-29 04:14:00,
2013-06-28 23:19:00,74.3,61.3,29.65,SSW,208,0.0,1.0,64,0.00,,CLR,0.00,VWS V14.01,2013-06-29 04:19:00,
2013-06-28 23:24:00,74.0,61.5,29.65,SSW,208,0.0,2.0,65,0.00,,CLR,0.00,VWS V14.01,2013-06-29 04:24:00,
2013-06-28 23:29:00,73.8,61.3,29.64,SSW,208,1.0,2.0,65,0.00,,CLR,0.00,VWS V14.01,2013-06-29 04:29:00,
2013-06-28 23:34:00,73.8,61.3,29.64,SSW,208,0.0,0.0,65,0.00,,CLR,0.00,VWS V14.01,2013-06-29 04:34:00,
2013-06-28 23:39:00,73.8,61.7,29.65,SSW,208,0.0,3.0,66,0.00,,CLR,0.00,VWS V14.01,2013-06-29 04:39:00,
2013-06-28 23:44:00,73.7,61.7,29.64,SSW,208,0.0,2.0,66,0.00,,CLR,0.00,VWS V14.01,2013-06-29 04:44:00,
2013-06-28 23:49:00,73.6,61.5,29.65,SSW,208,0.0,2.0,66,0.00,,CLR,0.00,VWS V14.01,2013-06-29 04:49:00,
2013-06-28 23:54:00,73.5,61.9,29.65,SSW,208,0.0,1.0,67,0.00,,CLR,0.00,VWS V14.01,2013-06-29 04:54:00,
2013-06-28 23:59:00,73.3,61.7,29.65,SSW,208,0.0,2.0,67,0.00,,CLR,0.00,VWS V14.01,2013-06-29 04:59:00,